Honolulu, HI

4:01 AM HST on November 23, 2017 (GMT -1000)
Honolulu International

Weather History for PHNL - October, 2011

Change the Weather History Date:

Sunday, October 30, 2011

  Actual Average Record
Temperature  
Mean Temperature 80 °F 79 °F  
Max Temperature 86 °F 86 °F 92 °F (2015)
Min Temperature 73 °F 73 °F 66 °F (1982)
Degree Days  
Heating Degree Days 0 0  
Month to date heating degree days 0 0  
Since 1 July heating degree days 0 0  
Cooling Degree Days 15 14  
Month to date cooling degree days 474 453  
Year to date cooling degree days 4155 3932  
Growing Degree Days 30 (Base 50)    
Moisture  
Dew Point 66 °F    
Average Humidity 64    
Maximum Humidity 79    
Minimum Humidity 48    
Precipitation  
Precipitation T in 0.07 in 7.47 in (1978)
Month to date precipitation 0.24 1.76  
Year to date precipitation 13.65 11.36  
Snow  
Snow 0.00 in - - ()
Month to date snowfall 0.0  
Since 1 July snowfall 0.0  
Since 1 September snowfall 0.0  
Snow Depth 0.00 in    
Sea Level Pressure  
Sea Level Pressure 29.95 in    
Wind  
Wind Speed 10 mph (ENE)    
Max Wind Speed 22 mph    
Max Gust Speed 26 mph    
Visibility 10 miles    
Events      
T = Trace of Precipitation, MM = Missing Value Source: NWS Daily Summary

Daily Weather History Graph

Daily Weather History Graph

Search for Another Location

Airport or City:

Trip Planner

Search our weather history database for the weather conditions in past years. The results will help you decide how hot, cold, wet, or windy it might be!

Date:

Astronomy

Oct. 30, 2011 Rise Set
Actual Time 6:33 AM HST 5:56 PM HST
Civil Twilight 6:10 AM HST 6:19 PM HST
Nautical Twilight 5:44 AM HST 6:45 PM HST
Astronomical Twilight 5:18 AM HST 7:11 PM HST
Moon 10:42 AM HST (10/30) 9:56 PM HST (10/30)
Length of Visible Light 12h 08m
Length of Day
11h 23m
Waxing Crescent, 22% of the Moon is Illuminated
Oct 30
Waxing Crescent
Nov 2
First Quarter
Nov 10
Full
Nov 18
Last Quarter
Nov 24
New

Hourly Weather History & Observations

Time (HST) Temp. Heat Index Dew Point Humidity Pressure Visibility Wind Dir Wind Speed Gust Speed Precip Events Conditions
12:53 AM 77.0 °F - 66.0 °F 69% 29.96 in 10.0 mi East 11.5 mph 19.6 mph N/A   Partly Cloudy
1:53 AM 77.0 °F - 66.0 °F 69% 29.94 in 10.0 mi ENE 10.4 mph - N/A   Partly Cloudy
2:53 AM 77.0 °F - 66.9 °F 71% 29.94 in 10.0 mi ENE 12.7 mph - N/A   Partly Cloudy
3:53 AM 75.0 °F - 66.9 °F 76% 29.93 in 10.0 mi Calm Calm - N/A   Partly Cloudy
4:53 AM 73.9 °F - 66.0 °F 76% 29.94 in 10.0 mi Calm Calm - N/A   Partly Cloudy
5:53 AM 73.9 °F - 66.9 °F 79% 29.95 in 10.0 mi NW 3.5 mph - N/A   Partly Cloudy
6:53 AM 75.0 °F - 66.9 °F 76% 29.96 in 10.0 mi NNE 4.6 mph - N/A   Mostly Cloudy
7:53 AM 79.0 °F - 66.9 °F 66% 29.98 in 10.0 mi Calm Calm - N/A   Scattered Clouds
8:53 AM 81.0 °F 83.3 °F 66.9 °F 62% 29.99 in 10.0 mi ENE 11.5 mph - N/A   Scattered Clouds
9:53 AM 82.0 °F 84.5 °F 66.9 °F 60% 29.99 in 10.0 mi ENE 15.0 mph 24.2 mph N/A   Scattered Clouds
10:53 AM 82.9 °F 85.4 °F 66.9 °F 58% 29.98 in 10.0 mi East 11.5 mph - N/A   Scattered Clouds
11:53 AM 86.0 °F 87.6 °F 64.9 °F 49% 29.96 in 10.0 mi ENE 17.3 mph 24.2 mph N/A   Scattered Clouds
12:53 PM 84.0 °F 87.0 °F 68.0 °F 58% 29.95 in 10.0 mi NE 16.1 mph 23.0 mph 0.00 in   Scattered Clouds
1:53 PM 84.9 °F 86.1 °F 64.0 °F 49% 29.92 in 10.0 mi ENE 15.0 mph 23.0 mph 0.00 in   Scattered Clouds
2:53 PM 84.9 °F 86.6 °F 64.9 °F 51% 29.91 in 10.0 mi ENE 15.0 mph 25.3 mph N/A   Scattered Clouds
3:53 PM 84.0 °F 85.8 °F 64.9 °F 53% 29.91 in 10.0 mi East 16.1 mph - N/A   Scattered Clouds
4:53 PM 82.9 °F 84.6 °F 64.9 °F 54% 29.91 in 10.0 mi ENE 13.8 mph - N/A   Scattered Clouds
5:53 PM 80.1 °F 81.9 °F 64.9 °F 60% 29.92 in 10.0 mi ENE 15.0 mph 20.7 mph N/A   Scattered Clouds
6:53 PM 79.0 °F - 66.0 °F 64% 29.94 in 10.0 mi NNE 9.2 mph - N/A   Scattered Clouds
7:53 PM 78.1 °F - 66.9 °F 68% 29.96 in 10.0 mi NE 5.8 mph - N/A   Scattered Clouds
8:53 PM 78.1 °F - 68.0 °F 71% 29.98 in 10.0 mi NE 9.2 mph - N/A   Mostly Cloudy
9:53 PM 78.1 °F - 68.0 °F 71% 29.97 in 10.0 mi East 11.5 mph - N/A   Scattered Clouds
10:53 PM 77.0 °F - 66.9 °F 71% 29.97 in 10.0 mi NE 9.2 mph - N/A   Scattered Clouds
11:53 PM 75.9 °F - 66.9 °F 74% 29.96 in 10.0 mi Calm Calm - N/A   Partly Cloudy